Regional Weather Roundup
Issued by NWS State College, PA

Home | Current Version | Previous Version | Graphics & Text | Print | Product List | Glossary Off
Versions: 1 2 3 4 5 6 7 8 9 10 11 12 13 14 15 16 17 18 19 20 21 22 23 24 25 26 27 28 29 30 31 32 33 34 35 36 37 38 39 40 41 42 43 44 45 46 47 48 49 50

000
ASUS41 KCTP 271710
RWRCTP

REGIONAL WEATHER ROUNDUP
NATIONAL WEATHER SERVICE STATE COLLEGE PA
100 PM EDT MON APR 27 2015

Note: "fair" indicates few or no clouds below 12,000 feet with no
significant weather and/or obstructions to visibility.

* = STATION THAT DOES NOT REPORT PRECIPITATION /E.G. RAIN...SNOW...ETC/
    THUNDER OR FOG.

PAZ002>004-007>009-013>016-020>023-029>032-271800-
WESTERN PENNSYLVANIA

CITY           SKY/WX    TMP DP  RH WIND       PRES   REMARKS
ERIE           CLOUDY    40  35  83 NW7       29.93R
MEADVILLE      CLOUDY    41  34  76 NW12      29.89S
FRANKLIN*      CLOUDY    39  34  81 W8        29.89S
NEW CASTLE     LGT RAIN  42  39  89 NW9       29.93S
BEAVER COUNTY  LGT RAIN  41  37  87 NW10G16   29.91R
BUTLER*        CLOUDY    43  37  81 NW8       29.90F
PITTSBURGH INT LGT RAIN  45  39  79 NW16      29.90R
PITTSBURGH     LGT RAIN  45  34  65 NW9G20    29.88S
INDIANA*       CLOUDY    46  37  71 NW14G20   29.89S
LATROBE        CLOUDY    46  34  61 NW9       29.89S
WASHINGTON CO* CLOUDY    46  37  71 W7        29.92R
$$

PAZ004>006-010>012-017>019-024>028-033>037-041-042-045-046-049>053-271800-
CENTRAL PENNSYLVANIA

CITY           SKY/WX    TMP DP  RH WIND       PRES   REMARKS
BRADFORD       LGT RAIN  41  35  79 NW8       29.82R
DUBOIS         CLOUDY    47  35  63 NW13      29.82S
CLEARFIELD     LGT RAIN  47  35  63 NW15      29.83R
JOHNSTOWN      LGT RAIN  41  33  73 NW14      29.83R
ALTOONA        LGT RAIN  49  33  54 NW9       29.82R
STATE COLLEGE  CLOUDY    50  32  50 NW7       29.79S
WILLIAMSPORT   CLOUDY    56  31  38 W10       29.76F
SELINSGROVE    CLOUDY    54  34  46 NW9       29.78S
FT INDIANTOWN  CLOUDY    55  28  36 VRB6      29.76S
CAPITAL CITY   CLOUDY    55  31  39 NW12G20   29.78S
HARRISBURG     CLOUDY    56  32  40 W14       29.77S
YORK           CLOUDY    54  32  43 NW12G24   29.78S
$$

PAZ038>040-043-044-047-048-054-055-060>062-067>071-271800-
EASTERN PENNSYLVANIA

CITY           SKY/WX    TMP DP  RH WIND       PRES   REMARKS
SCRANTON       CLOUDY    50  34  54 N12G18    29.74S
MOUNT POCONO   CLOUDY    48  29  47 NW15G23   29.70S
ALLENTOWN      CLOUDY    55  34  45 NW14      29.73F
QUAKERTOWN*    CLOUDY    55  34  44 N12G17    29.74S
READING        CLOUDY    56  34  43 W14G21    29.74F
LANCASTER      CLOUDY    54  32  43 NW12      29.76S
COATESVILLE    CLOUDY    54  34  47 NW13      29.75S
POTTSTOWN      CLOUDY    56  34  43 NW10      29.75S
BLUE BELL      MOSUNNY   55  32  41 NW3       29.72S
DOYLESTOWN     CLOUDY    57  34  41 NW10      29.71F
WILLOW GROVE   NOT AVBL
NORTH PHILA    PTSUNNY   61  32  33 NW12G23   29.73F
PHILADELPHIA   PTSUNNY   59  30  33 NW14      29.73S
$$


USA.gov is the U.S. government's official web portal to all federal, state and local government web resources and services.